TimeCDT,TemperatureF,Dew PointF,Humidity,Sea Level PressureIn,VisibilityMPH,Wind Direction,Wind SpeedMPH,Gust SpeedMPH,PrecipitationIn,Events,Conditions,WindDirDegrees,DateUTC
12:15 AM,75.4,67.3,76,30.01,7.0,WSW,3.5,-,0.03,Rain,Heavy Rain,240,2013-09-12 05:15:00
12:35 AM,73.8,68.5,84,30.00,10.0,Calm,Calm,-,0.04,Rain,Rain,0,2013-09-12 05:35:00
12:55 AM,74.3,68.5,82,29.99,10.0,Calm,Calm,-,0.04,,Overcast,0,2013-09-12 05:55:00
1:15 AM,73.9,68.9,84,29.99,10.0,Calm,Calm,-,N/A,,Overcast,0,2013-09-12 06:15:00
1:35 AM,74.3,68.9,83,29.99,10.0,SW,3.5,-,N/A,,Overcast,230,2013-09-12 06:35:00
1:55 AM,74.5,68.9,83,29.98,10.0,WSW,3.5,-,N/A,,Mostly Cloudy,250,2013-09-12 06:55:00
2:15 AM,73.9,68.9,84,29.98,10.0,WSW,3.5,-,N/A,,Scattered Clouds,240,2013-09-12 07:15:00
2:35 AM,72.9,68.4,86,29.97,10.0,Calm,Calm,-,N/A,,Clear,0,2013-09-12 07:35:00
2:55 AM,70.9,67.6,89,29.97,10.0,Calm,Calm,-,N/A,,Clear,0,2013-09-12 07:55:00
3:15 AM,70.2,67.5,91,29.97,10.0,West,3.5,-,N/A,,Clear,270,2013-09-12 08:15:00
3:35 AM,72.3,68.4,87,29.97,10.0,WSW,4.6,-,N/A,,Clear,250,2013-09-12 08:35:00
3:55 AM,72.3,68.0,86,29.98,10.0,West,5.8,-,N/A,,Clear,270,2013-09-12 08:55:00
4:15 AM,70.9,67.8,90,29.98,10.0,West,4.6,-,N/A,,Clear,270,2013-09-12 09:15:00
4:35 AM,71.2,67.6,88,29.98,10.0,West,4.6,-,N/A,,Clear,270,2013-09-12 09:35:00
4:45 AM,71.6,68.0,88,29.98,10.0,West,5.8,-,N/A,,Mostly Cloudy,270,2013-09-12 09:45:00
5:45 AM,71.6,64.4,78,29.99,10.0,NNW,9.2,-,N/A,,Mostly Cloudy,330,2013-09-12 10:45:00
6:45 AM,71.6,64.4,78,30.00,15.0,NNW,4.6,-,N/A,,Mostly Cloudy,340,2013-09-12 11:45:00
7:45 AM,71.6,62.6,73,30.01,15.0,North,4.6,-,N/A,,Mostly Cloudy,360,2013-09-12 12:45:00
9:45 AM,75.2,62.6,65,30.01,20.0,Calm,Calm,-,N/A,,Scattered Clouds,0,2013-09-12 14:45:00
10:45 AM,77.0,59.0,54,30.00,20.0,Calm,Calm,-,N/A,,Partly Cloudy,0,2013-09-12 15:45:00
11:45 AM,80.6,57.2,45,29.98,20.0,WSW,4.6,-,N/A,,Scattered Clouds,240,2013-09-12 16:45:00
12:45 PM,82.4,55.4,39,29.95,20.0,West,23.0,-,N/A,,Scattered Clouds,270,2013-09-12 17:45:00
1:45 PM,84.2,57.2,40,29.93,20.0,West,32.2,-,N/A,,Scattered Clouds,280,2013-09-12 18:45:00
2:45 PM,82.4,44.6,26,29.93,20.0,West,23.0,-,N/A,,Scattered Clouds,280,2013-09-12 19:45:00
4:45 PM,73.4,60.8,65,29.97,20.0,NNW,19.6,39.1,N/A,,Scattered Clouds,330,2013-09-12 21:45:00
5:45 PM,69.8,59.0,68,30.00,20.0,North,16.1,24.2,N/A,,Scattered Clouds,10,2013-09-12 22:45:00
6:45 PM,69.8,57.2,64,30.01,20.0,North,15.0,-,N/A,,Scattered Clouds,10,2013-09-12 23:45:00
7:45 PM,68.0,57.2,68,30.03,20.0,North,12.7,24.2,N/A,,Scattered Clouds,360,2013-09-13 00:45:00
8:45 PM,68.0,55.4,64,30.05,20.0,North,13.8,24.2,N/A,,Scattered Clouds,10,2013-09-13 01:45:00
9:15 PM,68.5,54.9,62,30.05,10.0,NNE,16.1,21.9,N/A,,Mostly Cloudy,20,2013-09-13 02:15:00
9:35 PM,68.4,54.7,62,30.05,10.0,North,13.8,20.7,N/A,,Mostly Cloudy,10,2013-09-13 02:35:00
9:45 PM,68.0,55.4,64,30.05,20.0,North,16.1,27.6,N/A,,Mostly Cloudy,360,2013-09-13 02:45:00
9:55 PM,68.2,55.9,65,30.05,10.0,NNE,15.0,18.4,N/A,,Overcast,20,2013-09-13 02:55:00
10:15 PM,68.0,55.2,64,30.05,10.0,NNE,15.0,-,N/A,,Overcast,20,2013-09-13 03:15:00
10:35 PM,66.7,54.9,66,30.06,10.0,NNE,19.6,24.2,N/A,,Overcast,30,2013-09-13 03:35:00
10:55 PM,66.9,54.1,63,30.07,10.0,NNE,17.3,20.7,N/A,,Overcast,30,2013-09-13 03:55:00
11:15 PM,66.6,53.8,63,30.07,10.0,NNE,15.0,25.3,N/A,,Overcast,20,2013-09-13 04:15:00
11:35 PM,66.4,53.4,63,30.07,10.0,North,18.4,23.0,N/A,,Overcast,10,2013-09-13 04:35:00
11:55 PM,65.8,53.2,64,30.07,10.0,NNE,17.3,24.2,N/A,,Mostly Cloudy,30,2013-09-13 04:55:00